Regional Weather Roundup
Issued by NWS

Home | Current Version | Previous Version | Text Only | Print | Product List | Glossary On
Versions: 1 2 3 4 5 6 7 8 9 10 11 12 13 14 15 16 17 18 19 20 21 22 23 24 25 26 27 28 29 30 31 32 33 34 35 36 37 38 39 40 41 42 43 44 45 46 47 48 49 50
000
ASUS43 KDTX 312010
RWRMI
MICHIGAN HOURLY REGIONAL WEATHER ROUNDUP
NATIONAL WEATHER SERVICE DETROIT/PONTIAC MI
400 PM EDT MON AUG 31 2015

NOTE: "FAIR" INDICATES FEW OR NO CLOUDS BELOW 12,000 FEET WITH NO
SIGNIFICANT WEATHER AND/OR OBSTRUCTION TO VISIBILITY.

MIZ047>049-052>055-059>063-066>070-074>076-081>083-312100-
SOUTHEAST LOWER MICHIGAN

CITY           SKY/WX    TMP DP  RH WIND       PRES   REMARKS
ADRIAN         MOSUNNY   85  65  51 W7        30.06F
ALMA           SUNNY     77  67  72 SW5       30.06F
ANN ARBOR      SUNNY     84  67  56 W8        30.06F
BAD AXE        SUNNY     77  64  65 W6        30.05F
DETROIT CITY   SUNNY     83  64  52 SW9       30.05F
DETROIT        MOSUNNY   85  67  54 W12       30.06F
FLINT          SUNNY     82  66  58 VRB6      30.06F
GROSSE ILE     PTSUNNY   81  72  74 SE5       30.04F
HILLSDALE      MOSUNNY   84  66  54 W7        30.08F
HOWELL         MOSUNNY   81  64  56 W10       30.07F

CITY           SKY/WX    TMP DP  RH WIND       PRES   REMARKS
JACKSON        SUNNY     81  69  67 W8        30.07F
LAMBERTVILLE   MOSUNNY   86  67  52 W7        30.06F
LANSING        SUNNY     80  66  62 W9        30.07F
LAPEER         NOT AVBL
MASON          MOSUNNY   81  64  57 S3        30.07F
MONROE         PTSUNNY   86  66  51 W9        30.04F
MT. CLEMENS    SUNNY     82  63  51 W8        30.04F
PONTIAC        MOSUNNY   81  64  56 SW5       30.06F
PORT HOPE        N/A     78  66  66 VRB7      30.03F
PORT HURON     SUNNY     77  66  69 SW5       30.05F
TRI CITIES     SUNNY     78  66  66 SW7       30.06F
YPSILANTI      SUNNY     87  68  52 W7        30.06F HX  90
$$
MIZ043>046-050>051-056>058-064>065-071>073-077>080-312100-
SOUTHWEST LOWER MICHIGAN

CITY           SKY/WX    TMP DP  RH WIND       PRES   REMARKS
BATTLE CREEK   SUNNY     81  67  62 W6        30.07F
BENTON HARBOR  SUNNY     79  67  66 W8        30.06F
BIG RAPIDS     SUNNY     77  66  68 SW6       30.05F
COLDWATER      MOSUNNY   83  66  56 W3        30.07F
HOLLAND        SUNNY     80  66  62 S7        30.06F
GRAND RAPIDS   MOSUNNY   81  67  62 VRB3      30.06F
KALAMAZOO      MOSUNNY   82  66  58 VRB7      30.06F
MARSHALL       MOSUNNY   83  69  62 W7        30.06F
MUSKEGON       PTSUNNY   76  64  66 SW8       30.06F
$$
MIZ016>042-312100-
NORTHERN LOWER MICHIGAN

CITY           SKY/WX    TMP DP  RH WIND       PRES   REMARKS
ALPENA         SUNNY     74  65  73 E10       30.02S
BEAVER ISLAND  CLOUDY    69  65  86 SW13      30.01S HAZE
BELLAIRE       SUNNY     81  64  56 SW7       30.00F
CADILLAC       SUNNY     78  65  64 SW7       30.05F
CHARLEVOIX     SUNNY     76  67  74 W12       30.03F
FRANKFORT      PTCLDY    73  67  81 SW9       30.03F
GAYLORD        SUNNY     80  60  50 W9        30.04S
GRAYLING       SUNNY     83  62  47 W9        30.04F
HARBOR SPRINGS SUNNY     76  67  73 SW8       30.01S
HOUGHTON LAKE  SUNNY     82  62  50 SW7       30.05S
MANISTEE       SUNNY     77  64  65 S9        30.04F
OSCODA         SUNNY     81  66  60 S8        30.00F
PELLSTON       SUNNY     80  66  62 W9        30.01F
TRAVERSE CITY  SUNNY     82  65  56 SW13      30.00F
$$
MIZ007>008-015-312100-
EASTERN UPPER MICHIGAN

CITY           SKY/WX    TMP DP  RH WIND       PRES   REMARKS
KINROSS        MOSUNNY   73  66  78 S8        30.00F
MACKINAC ISLAN SUNNY     72  65  81 W10       30.01S
NEWBERRY       SUNNY     72  65  76 S12       29.98F
S. S. MARIE    MOSUNNY   76  66  71 VRB6      29.98F
$$
MIZ004>006-011>014-085-312100-
CENTRAL UPPER MICHIGAN

CITY           SKY/WX    TMP DP  RH WIND       PRES   REMARKS
MANISTIQUE     CLOUDY    65  63  91 S15       29.98S FOG
ESCANABA       SUNNY     70  63  78 S17       29.96S
MENOMINEE      SUNNY     75  66  73 SW13      29.97F
SAWYER-GWINN   SUNNY     86  63  45 S12G20    29.94F
$$
MIZ001>003-009>011-084-312100-
WESTERN UPPER MICHIGAN

CITY           SKY/WX    TMP DP  RH WIND       PRES   REMARKS
IRON MOUNTAIN  SUNNY     84  65  52 SW9       29.95F
HOUGHTON       SUNNY     86  64  47 S6        29.88F
IRONWOOD       SUNNY     82  64  54 S9        29.88F
$$

ABBREVIATIONS USED IN REMARKS
   TC - TEMPERATURE IN CELSIUS
  WCI - WIND CHILL INDEX
   HX - HEAT INDEX
  VSB - VISIBILITY



USA.gov is the U.S. government's official web portal to all federal, state and local government web resources and services.